Preview of NWS' New Version of Forecast
This preview is not operational and should not be used for support decisions.

Regional Weather Roundup (RWR)

Issued by National Weather Service (NWS)

                            
000
ASUS44 KJAN 201910
RWRMS 

MISSISSIPPI HOURLY WEATHER ROUNDUP
NATIONAL WEATHER SERVICE JACKSON MS
200 PM CDT SAT APR 20 2019

NOTE: "FAIR: INDICATES FEW OR NO CLOUDS BELOW 12,000 FEET WITH NO
SIGNIFICANT WEATHER AND/OR OBSTRUCTIONS TO VISIBILITY.

MSZ001>002-007>008-010>013-018>021-025>028-034>036-202000-
NORTHWEST MISSISSIPPI
  
CITY           SKY/WX    TMP DP  RH WIND       PRES   REMARKS
BATESVILLE     FAIR      66  32  28 NW14G24   29.95S                  
CLARKSDALE     SUNNY     68  39  34 NW13G20   29.98S                  
CLEVELAND      FAIR      66  38  36 NW9       29.99F                  
GREENWOOD      FAIR      67  30  25 VRB7G22   29.98F                  
GREENVILLE     FAIR      67  37  33 NW13G21   30.00F                  
OLIVE BRANCH   SUNNY     63  30  29 NW18      29.92F                  
OXFORD         FAIR      64  25  22 NW13G24   29.95S                  
TUNICA           N/A     64  36  34 NW13G23   29.97S                  
WINONA         FAIR      64  31  28 NW10G18   29.96F                  
$$

MSZ003>006-009-014>017-022>024-029>033-037>039-202000-
NORTHEAST MISSISSIPPI
  
CITY           SKY/WX    TMP DP  RH WIND       PRES   REMARKS
ABERDEEN       FAIR      63  43  48 NW15G24   29.91S                  
COLUMBUS AFB   FAIR      65  33  30 W26       29.90S                  
CORINTH        FAIR      63  28  27 N16G31    29.87R                  
GOLDN TRIANGLE FAIR      66  36  32 NW13G20   29.91F                  
STARKVILLE     FAIR      64  25  22 W12G24    29.93S                  
TUPELO         FAIR      65  27  23 NW13G31   29.89S                  
$$

MSZ040-058-202000-
CENTRAL MISSISSIPPI
  
CITY           SKY/WX    TMP DP  RH WIND       PRES   REMARKS
JACKSON INTL   FAIR      68  31  25 NW9G18    30.00F                  
JACKSON HAWKNS FAIR      67  34  29 NW9       30.01F                  
MADISON        FAIR      64  34  32 W9G18     30.00S                  
MERIDIAN KEY   FAIR      69  29  22 NW18G28   29.94F                  
MERIDIAN NAS   FAIR      69  27  20 NW23G36   29.93S                  
RAYMOND        FAIR      68  37  32 NW12G23   30.01F                  
VICKSBURG VKS  CLEAR     68  36  30 NW13      30.04S                  
$$

MSZ059>079-202000-
SOUTH MISSISSIPPI
  
CITY           SKY/WX    TMP DP  RH WIND       PRES   REMARKS
HATTIESBURG    FAIR      68  31  25 NW14G24   30.00F                  
LAUREL         CLEAR     67  34  29 NW16G23   29.98F                  
MCCOMB         FAIR      69  32  25 NW13      30.02F                  
NATCHEZ        FAIR      67  35  30 NW14      30.05F                  
PINE BELT      FAIR      67  36  31 NW10G20   30.00F                  
$$

MSZ080>082-202000-
COASTAL MISSISSIPPI
  
CITY           SKY/WX    TMP DP  RH WIND       PRES   REMARKS
BAY ST LOUIS   SUNNY     70  36  28 NW15G25   30.01F                  
BILOXI         FAIR      70  37  29 NW10G20   29.99F                  
PASCAGOULA     FAIR      72  33  24 NW12G21   29.98F                  
GULFPORT       FAIR      71  37  28 NW15G22   29.99F                  
$$

LAZ007>009-015>016-023>026-202000-
NORTHEAST LOUISIANA
  
CITY           SKY/WX    TMP DP  RH WIND       PRES   REMARKS
BASTROP        FAIR      70  38  30 W7G16     30.04F                  
TALLULAH/VBURG FAIR      67  39  35 W6        30.03F                  
VIDALIA        FAIR      68  38  33 W13G18    30.05F                  
$$